Location: Unspecified
(0.0000°N, 0.0000°E)
Time: 18:16:17
(UTC+00:00)

deb r/b Ablestar - Pass Details

Date: 16 November 2025
Orbit: 783 x 882 km, 66.7° (Epoch: 05 December)

Event Time Altitude Azimuth Distance (km) Brightness Sun altitude
Exits shadow 05:00:27 12° 270° (W) 2,227 ? -10.5°
Maximum altitude 05:02:15 14° 249° (WSW) 2,112 ? -10.1°
Drops below altitude 10° 05:04:50 10° 220° (SW) 2,362 ? -9.4°
Sets 05:08:36 0° 194° (SSW) 3,313 ? -8.6°
